Location: Igon
(43.1667°N, 0.2333°W)
Time: 15:07:36
(UTC+00:00)

Meteor 1-4 Rocket - Pass Details

Date: 29 November 2020
Orbit: 449 x 500 km, 81.2° (Epoch: 25 January)

Event Time Altitude Azimuth Distance (km) Brightness Sun altitude
Exits shadow 04:47:56 24° 149° (SSE) 964 4.4 -25.5°
Drops below altitude 10° 04:49:30 10° 158° (SSE) 1,576 5.5 -25.2°
Sets 04:51:35 0° 162° (SSE) 2,447 6.4 -24.9°
